Location: Corte Bragagnani
(45.3000°N, 11.1000°E)
Time: 23:17:42
(UTC+00:00)

Cosmos 2219 Rocket - Pass Details

Date: 09 April 2020
Orbit: 829 x 845 km, 71.0° (Epoch: 23 May)

Event Time Altitude Azimuth Distance (km) Brightness Sun altitude
Rises 22:27:40 0° 342° (NNW) 3,388 6.4 -35.5°
Reaches altitude 10° 22:30:59 10° 2° (N) 2,448 5.3 -35.7°
Maximum altitude 22:34:40 18° 43° (NE) 1,965 4.4 -35.8°
Enters shadow 22:35:00 17° 48° (NE) 1,969 4.3 -35.9°
